Date String (YYYY-MM-DD hh:mm:ss) UTC,Instrument flags,Ambient pressure (hPa),Sample flow (lpm),Bypass flow (lpm),Sample temperature (°C),Ambient temperature (°C),ASC tube jacket temperature (°C),LED temperature (°C),Box temperature (°C),Sample RH (%),Span deviation,Mass concentration (μg/m³),Mass concentration (μg/m³),Mass concentration (μg/m³)
DateTimeUTC,F1_M11,P_M11,Q1_M11,Q2_M11,T1_M11,T2_M11,T3_M11,T4_M11,T5_M11,U1_M11,ZSPAN_M11,X0_M11,X2_M11,X1_M11
2022-05-24 00:00:00,,0825.0,4.99,0.00,30.0,29.0,00.0,39.0,31.7,14.4,0000.0,0007.05,0003.01,0002.20
2022-05-24 00:01:00,,0825.0,5.01,0.00,30.0,29.0,00.0,39.0,31.8,14.1,0000.0,0007.49,0003.05,0002.23
2022-05-24 00:02:00,,0825.1,5.00,0.00,30.0,28.9,00.0,39.0,31.7,14.1,0000.0,0007.40,0003.07,0002.25
2022-05-24 00:03:00,,0825.0,5.00,0.00,30.0,28.9,00.0,39.0,31.7,14.2,0000.0,0007.47,0003.10,0002.28
2022-05-24 00:04:00,,0825.0,5.00,0.00,30.0,28.9,00.0,39.0,31.7,13.8,0000.0,0007.55,0003.14,0002.29
2022-05-24 00:05:00,,0825.0,5.01,0.00,30.0,28.9,00.0,39.0,31.7,13.8,0000.0,0007.47,0003.14,0002.29
2022-05-24 00:06:00,,0825.0,4.99,0.00,30.0,28.9,00.0,39.0,31.7,13.9,0000.0,0007.56,0003.11,0002.30
2022-05-24 00:07:00,,0825.0,5.00,0.00,30.0,28.9,00.0,39.0,31.7,13.5,0000.0,0007.58,0003.06,0002.29
2022-05-24 00:08:00,,0825.1,5.01,0.00,30.0,28.9,00.0,39.0,31.7,13.6,0000.0,0007.74,0003.07,0002.28
2022-05-24 00:09:00,,0825.1,4.99,0.00,30.0,28.9,00.0,39.0,31.7,13.8,0000.0,0007.97,0003.09,0002.26
2022-05-24 00:10:00,,0825.1,5.00,0.00,30.0,28.9,00.0,39.0,31.7,13.7,0000.0,0008.23,0003.13,0002.24
2022-05-24 00:11:00,,0825.1,4.99,0.00,30.0,28.9,00.0,39.0,31.7,13.6,0000.0,0007.75,0003.11,0002.23
2022-05-24 00:12:00,,0825.1,5.00,0.00,30.0,28.9,00.0,39.0,31.7,13.7,0000.0,0007.53,0003.03,0002.20
2022-05-24 00:13:00,,0825.1,5.00,0.00,30.0,28.9,00.0,39.0,31.7,13.9,0000.0,0007.60,0002.96,0002.17
2022-05-24 00:14:00,,0825.1,5.01,0.00,30.0,28.9,00.0,39.0,31.7,13.8,0000.0,0007.71,0002.94,0002.14
2022-05-24 00:15:00,,0825.0,5.00,0.00,30.0,28.9,00.0,39.0,31.7,13.7,0000.0,0007.74,0002.87,0002.10
2022-05-24 00:16:00,,0825.0,5.00,0.00,30.0,28.9,00.0,39.0,31.7,13.5,0000.0,0007.77,0002.84,0002.08
2022-05-24 00:17:00,,0825.1,5.00,0.00,30.0,28.9,00.0,38.9,31.7,13.4,0000.0,0007.60,0002.82,0002.06
2022-05-24 00:18:00,,0825.1,5.01,0.00,30.0,28.9,00.0,38.9,31.7,13.8,0000.0,0007.48,0002.80,0002.02
2022-05-24 00:19:00,,0825.1,4.99,0.00,30.0,28.9,00.0,38.9,31.7,13.8,0000.0,0007.36,0002.82,0002.01
2022-05-24 00:20:00,,0825.1,5.00,0.00,30.0,28.9,00.0,38.9,31.7,14.1,0000.0,0006.96,0002.76,0001.99
2022-05-24 00:21:00,,0825.1,5.00,0.00,30.0,28.9,00.0,38.9,31.7,14.1,0000.0,0006.28,0002.66,0001.97
2022-05-24 00:22:00,,0825.1,5.01,0.00,30.0,28.9,00.0,38.9,31.7,13.6,0000.0,0005.25,0002.59,0001.94
2022-05-24 00:23:00,,0825.0,5.00,0.00,30.0,28.9,00.0,38.9,31.7,13.9,0000.0,0005.04,0002.54,0001.93
2022-05-24 00:24:00,,0825.1,4.99,0.00,30.0,28.9,00.0,38.9,31.7,13.6,0000.0,0004.89,0002.53,0001.91
2022-05-24 00:25:00,,0825.1,5.01,0.00,30.0,28.9,00.0,38.9,31.7,13.6,0000.0,0005.23,0002.49,0001.91
2022-05-24 00:26:00,,0825.1,5.01,0.00,30.0,28.9,00.0,38.9,31.7,13.9,0000.0,0004.89,0002.46,0001.91
2022-05-24 00:27:00,,0825.1,5.00,0.00,30.0,28.9,00.0,38.9,31.7,14.1,0000.0,0005.11,0002.49,0001.90
2022-05-24 00:28:00,,0825.1,4.99,0.00,30.0,28.9,00.0,38.9,31.7,14.1,0000.0,0005.39,0002.51,0001.91
2022-05-24 00:29:00,,0825.1,5.00,0.00,29.9,28.9,00.0,38.9,31.7,14.1,0000.0,0006.64,0002.49,0001.91
2022-05-24 00:30:00,,0825.0,5.01,0.00,29.9,28.9,00.0,38.9,31.7,14.2,0000.0,0006.49,0002.44,0001.90
2022-05-24 00:31:00,,0825.1,5.00,0.00,29.9,28.8,00.0,38.9,31.7,14.3,0000.0,0006.44,0002.41,0001.89
2022-05-24 00:32:00,,0825.1,5.00,0.00,29.9,28.8,00.0,38.9,31.7,13.9,0000.0,0006.62,0002.46,0001.90
2022-05-24 00:33:00,,0825.1,5.00,0.00,29.9,28.8,00.0,38.9,31.6,14.1,0000.0,0006.58,0002.44,0001.88
2022-05-24 00:34:00,,0825.1,5.01,0.00,29.9,28.8,00.0,38.9,31.6,14.2,0000.0,0006.51,0002.47,0001.89
2022-05-24 00:35:00,,0825.1,5.00,0.00,29.9,28.8,00.0,38.9,31.6,14.2,0000.0,0006.22,0002.43,0001.90
2022-05-24 00:36:00,,0825.2,5.00,0.00,29.9,28.8,00.0,38.9,31.6,14.3,0000.0,0005.63,0002.42,0001.91
2022-05-24 00:37:00,,0825.2,4.99,0.00,29.9,28.8,00.0,38.9,31.7,14.3,0000.0,0005.46,0002.43,0001.93
2022-05-24 00:38:00,,0825.2,4.99,0.00,29.9,28.8,00.0,38.9,31.7,14.5,0000.0,0005.36,0002.45,0001.94
2022-05-24 00:39:00,,0825.2,5.01,0.00,29.9,28.8,00.0,38.9,31.7,14.4,0000.0,0005.83,0002.46,0001.95
2022-05-24 00:40:00,,0825.2,5.01,0.00,29.9,28.8,00.0,38.9,31.7,14.5,0000.0,0004.74,0002.47,0001.96
2022-05-24 00:41:00,,0825.2,5.01,0.00,29.9,28.8,00.0,38.9,31.7,14.7,0000.0,0004.60,0002.51,0001.97
2022-05-24 00:42:00,,0825.2,4.99,0.00,29.9,28.8,00.0,38.9,31.7,14.5,0000.0,0004.79,0002.58,0001.99
2022-05-24 00:43:00,,0825.2,5.00,0.00,29.9,28.8,00.0,38.9,31.7,14.6,0000.0,0004.96,0002.60,0001.99
2022-05-24 00:44:00,,0825.2,5.00,0.00,29.9,28.8,00.0,38.9,31.7,14.5,0000.0,0005.19,0002.64,0002.02
2022-05-24 00:45:00,,0825.2,5.00,0.00,29.9,28.8,00.0,38.9,31.7,14.5,0000.0,0005.39,0002.77,0002.03
2022-05-24 00:46:00,,0825.2,5.00,0.00,29.9,28.8,00.0,38.9,31.7,14.6,0000.0,0005.42,0002.83,0002.05
2022-05-24 00:47:00,,0825.2,4.99,0.00,29.9,28.8,00.0,38.9,31.7,14.9,0000.0,0005.51,0002.87,0002.06
2022-05-24 00:48:00,,0825.2,5.00,0.00,29.9,28.8,00.0,38.9,31.7,14.9,0000.0,0005.51,0002.89,0002.07
2022-05-24 00:49:00,,0825.2,5.01,0.00,29.9,28.8,00.0,38.9,31.7,14.8,0000.0,0005.61,0002.93,0002.08
2022-05-24 00:50:00,,0825.3,5.01,0.00,29.9,28.8,00.0,38.9,31.7,14.9,0000.0,0005.23,0002.94,0002.08
2022-05-24 00:51:00,,0825.3,5.00,0.00,29.9,28.8,00.0,38.9,31.7,14.8,0000.0,0005.35,0002.97,0002.09
2022-05-24 00:52:00,,0825.3,5.00,0.00,29.9,28.8,00.0,38.9,31.7,14.5,0000.0,0006.28,0003.01,0002.10
2022-05-24 00:53:00,,0825.3,5.00,0.00,29.9,28.8,00.0,38.9,31.7,14.3,0000.0,0006.18,0002.97,0002.11
2022-05-24 00:54:00,,0825.3,5.01,0.00,29.9,28.8,00.0,38.9,31.7,14.2,0000.0,0006.22,0003.01,0002.14
2022-05-24 00:55:00,,0825.3,5.01,0.00,29.9,28.8,00.0,38.9,31.7,14.5,0000.0,0006.14,0003.06,0002.16
2022-05-24 00:56:00,,0825.3,5.00,0.00,29.9,28.8,00.0,38.9,31.7,14.5,0000.0,0006.19,0003.05,0002.18
2022-05-24 00:57:00,,0825.3,5.00,0.00,29.9,28.8,00.0,38.9,31.7,14.5,0000.0,0006.10,0003.00,0002.18
2022-05-24 00:58:00,,0825.3,4.99,0.00,29.9,28.8,00.0,38.9,31.7,14.8,0000.0,0006.69,0003.03,0002.19
2022-05-24 00:59:00,,0825.3,5.00,0.00,29.9,28.8,00.0,38.9,31.7,14.6,0000.0,0007.00,0003.06,0002.20
